FW4485 Weather Reports


Display with metric or nautical units.
time (UTC)temp
F
wind
direction
speed
MPH
gust
MPH
rain 1hr
in
rain 24hr
in
rain mn
in
humidity
%
barometer
mb
20190525001645 81 278 0.0 0.0 0.00 0.00 0.00 69 1017.2
20190525001053 82 278 0.0 0.0 0.00 0.00 0.00 70 1017.2
20190525000549 82 278 0.0 1.0 0.00 0.00 0.00 68 1017.2
20190525000149 82 81 0.0 0.0 0.00 0.00 0.00 68 1017.2
20190524235555 82 80 0.0 0.0 0.00 0.00 0.00 68 1017.1
20190524235056 83 218 0.0 0.0 0.00 0.00 0.00 68 1017.1
20190524234646 83 219 0.0 0.0 0.00 0.00 0.00 67 1017.0
20190524234048 84 218 0.0 0.0 0.00 0.00 0.00 66 1017.0
20190524233548 84 218 0.0 0.0 0.00 0.00 0.00 64 1016.9
20190524233119 85 218 0.0 0.0 0.00 0.00 0.00 63 1016.9
20190524232548 86 219 0.0 0.0 0.00 0.00 0.00 61 1016.8
20190524232047 86 218 0.0 0.0 0.00 0.00 0.00 60 1016.7
20190524231653 87 218 0.0 1.0 0.00 0.00 0.00 58 1016.6
20190524231047 87 219 0.0 1.0 0.00 0.00 0.00 57 1016.6
20190524230546 87 214 0.0 2.0 0.00 0.00 0.00 55 1016.6
20190524230135 87 64 0.0 2.0 0.00 0.00 0.00 55 1016.5
20190524225546 88 283 0.0 2.0 0.00 0.00 0.00 55 1016.5
20190524225046 87 278 0.0 2.0 0.00 0.00 0.00 54 1016.6
20190524224606 88 47 0.0 3.0 0.00 0.00 0.00 54 1016.5
20190524224046 88 146 0.0 3.0 0.00 0.00 0.00 54 1016.5
20190524223546 88 248 0.0 4.0 0.00 0.00 0.00 52 1016.5
20190524223120 88 135 0.0 4.0 0.00 0.00 0.00 52 1016.5
20190524222546 89 293 0.0 2.0 0.00 0.00 0.00 53 1016.4
20190524222053 89 236 0.0 4.0 0.00 0.00 0.00 50 1016.3
20190524221641 90 259 0.0 4.0 0.00 0.00 0.00 50 1016.4
20190524221049 90 36 0.0 4.0 0.00 0.00 0.00 50 1016.4
20190524220547 91 262 1.0 4.0 0.00 0.00 0.00 50 1016.5
20190524220200 91 135 0.0 2.0 0.00 0.00 0.00 49 1016.5
20190524215544 91 271 0.0 3.0 0.00 0.00 0.00 50 1016.5
20190524215045 91 233 1.0 2.0 0.00 0.00 0.00 48 1016.4
20190524214610 91 65 0.0 3.0 0.00 0.00 0.00 49 1016.5
20190524214044 91 324 0.0 4.0 0.00 0.00 0.00 51 1016.4
20190524213550 91 250 1.0 4.0 0.00 0.00 0.00 47 1016.4
20190524213120 91 274 1.0 4.0 0.00 0.00 0.00 50 1016.4
20190524212546 91 53 2.0 5.0 0.00 0.00 0.00 48 1016.4
20190524212051 91 288 1.0 6.0 0.00 0.00 0.00 48 1016.4
20190524211635 91 233 2.0 6.0 0.00 0.00 0.00 46 1016.4
20190524211041 92 222 0.0 3.0 0.00 0.00 0.00 49 1016.5
20190524210543 91 225 0.0 3.0 0.00 0.00 0.00 47 1016.5
20190524210153 91 271 1.0 8.0 0.00 0.00 0.00 46 1016.6
20190524205538 91 298 1.0 8.0 0.00 0.00 0.00 48 1016.6
20190524205039 91 39 1.0 7.0 0.00 0.00 0.00 46 1016.7
20190524204618 91 210 0.0 5.0 0.00 0.00 0.00 47 1016.7
20190524204042 91 49 1.0 5.0 0.00 0.00 0.00 48 1016.7
20190524203537 91 94 0.0 4.0 0.00 0.00 0.00 51 1016.7
20190524203114 91 273 0.0 4.0 0.00 0.00 0.00 50 1016.7
20190524202537 91 257 0.0 6.0 0.00 0.00 0.00 50 1016.8
20190524202039 91 349 2.0 6.0 0.00 0.00 0.00 48 1016.8
20190524201609 91 256 1.0 5.0 0.00 0.00 0.00 48 1016.9
20190524201040 91 342 1.0 5.0 0.00 0.00 0.00 50 1016.8
20190524200536 91 52 0.0 3.0 0.00 0.00 0.00 49 1016.8
20190524200103 92 48 1.0 4.0 0.00 0.00 0.00 45 1016.8
20190524195536 92 25 1.0 4.0 0.00 0.00 0.00 46 1016.7
20190524195036 92 274 0.0 4.0 0.00 0.00 0.00 49 1016.7
20190524194627 92 117 1.0 4.0 0.00 0.00 0.00 45 1016.7
20190524194039 92 284 1.0 4.0 0.00 0.00 0.00 44 1016.8
20190524193545 92 326 1.0 7.0 0.00 0.00 0.00 48 1016.7
20190524193200 92 276 0.0 7.0 0.00 0.00 0.00 45 1016.8
20190524192539 92 267 1.0 3.0 0.00 0.00 0.00 43 1016.8
20190524192032 92 5 0.0 5.0 0.00 0.00 0.00 47 1016.8
20190524191600 92 271 1.0 5.0 0.00 0.00 0.00 44 1016.9
20190524191032 92 326 1.0 4.0 0.00 0.00 0.00 45 1016.9
20190524190539 92 248 1.0 5.0 0.00 0.00 0.00 50 1017.0
20190524190057 91 239 1.0 6.0 0.00 0.00 0.00 45 1017.0
20190524185530 92 294 1.0 5.0 0.00 0.00 0.00 45 1016.9
20190524185034 92 287 2.0 5.0 0.00 0.00 0.00 44 1016.9
20190524184538 91 12 0.0 4.0 0.00 0.00 0.00 45 1016.9
20190524184040 91 17 0.0 6.0 0.00 0.00 0.00 47 1017.1
20190524183533 91 267 1.0 7.0 0.00 0.00 0.00 45 1017.1
20190524183055 92 271 1.0 4.0 0.00 0.00 0.00 44 1017.1
20190524182532 91 358 1.0 4.0 0.00 0.00 0.00 44 1017.2
20190524182034 91 241 1.0 8.0 0.00 0.00 0.00 47 1017.2
20190524181546 91 263 2.0 8.0 0.00 0.00 0.00 44 1017.3
20190524181024 91 56 1.0 5.0 0.00 0.00 0.00 47 1017.4
20190524180526 91 316 1.0 7.0 0.00 0.00 0.00 43 1017.4
20190524180054 91 257 1.0 6.0 0.00 0.00 0.00 45 1017.5
20190524175522 91 263 2.0 10.0 0.00 0.00 0.00 46 1017.6
20190524175021 91 246 1.0 10.0 0.00 0.00 0.00 45 1017.6
20190524174534 91 19 2.0 8.0 0.00 0.00 0.00 43 1017.7
20190524174021 91 252 2.0 5.0 0.00 0.00 0.00 48 1017.6
20190524173520 90 262 2.0 6.0 0.00 0.00 0.00 46 1017.6
20190524173052 90 255 1.0 8.0 0.00 0.00 0.00 46 1017.6
20190524172522 90 288 2.0 7.0 0.00 0.00 0.00 44 1017.7
20190524172019 90 242 2.0 6.0 0.00 0.00 0.00 45 1017.8
20190524171542 90 256 2.0 8.0 0.00 0.00 0.00 46 1017.9
20190524171018 90 255 2.0 8.0 0.00 0.00 0.00 43 1017.9
20190524170519 90 260 1.0 6.0 0.00 0.00 0.00 46 1018.0
20190524170037 90 340 2.0 6.0 0.00 0.00 0.00 47 1018.1
20190524165520 89 285 2.0 5.0 0.00 0.00 0.00 46 1018.1
20190524165015 89 264 3.0 6.0 0.00 0.00 0.00 47 1018.2
20190524164532 89 245 3.0 11.0 0.00 0.00 0.00 48 1018.2
20190524164015 89 226 2.0 8.0 0.00 0.00 0.00 49 1018.3
20190524163518 89 293 1.0 7.0 0.00 0.00 0.00 52 1018.2
20190524163022 89 298 2.0 6.0 0.00 0.00 0.00 52 1018.3
20190524162511 88 276 2.0 6.0 0.00 0.00 0.00 56 1018.2
20190524162010 88 239 0.0 4.0 0.00 0.00 0.00 54 1018.4
20190524161530 88 60 0.0 6.0 0.00 0.00 0.00 56 1018.4
20190524161008 88 291 1.0 6.0 0.00 0.00 0.00 56 1018.5
20190524160507 88 233 0.0 2.0 0.00 0.00 0.00 62 1018.4
20190524160008 88 217 0.0 3.0 0.00 0.00 0.00 63 1018.4
20190524155511 88 142 0.0 3.0 0.00 0.00 0.00 58 1018.5
20190524155004 87 248 0.0 3.0 0.00 0.00 0.00 59 1018.5
20190524154519 87 246 1.0 3.0 0.00 0.00 0.00 60 1018.5
20190524154003 87 248 1.0 3.0 0.00 0.00 0.00 59 1018.5
20190524153506 87 25 0.0 2.0 0.00 0.00 0.00 59 1018.6
20190524153008 87 249 0.0 4.0 0.00 0.00 0.00 57 1018.6
20190524152503 86 307 0.0 4.0 0.00 0.00 0.00 61 1018.6
20190524152100 86 27 1.0 4.0 0.00 0.00 0.00 59 1018.6
20190524151652 86 263 0.0 3.0 0.00 0.00 0.00 63 1018.6
20190524151057 86 240 0.0 3.0 0.00 0.00 0.00 63 1018.6
20190524150556 86 25 0.0 4.0 0.00 0.00 0.00 60 1018.7
20190524150235 85 276 1.0 4.0 0.00 0.00 0.00 61 1018.7
20190524145554 85 269 1.0 3.0 0.00 0.00 0.00 62 1018.7
20190524145058 85 207 0.0 3.0 0.00 0.00 0.00 61 1018.7
20190524144651 85 255 0.0 1.0 0.00 0.00 0.00 65 1018.7
20190524144052 84 277 0.0 3.0 0.00 0.00 0.00 64 1018.7
20190524143601 84 305 0.0 3.0 0.00 0.00 0.00 63 1018.7
20190524143143 83 259 0.0 4.0 0.00 0.00 0.00 66 1018.7
20190524142552 83 249 0.0 4.0 0.00 0.00 0.00 66 1018.7
20190524142058 83 273 0.0 4.0 0.00 0.00 0.00 69 1018.6
20190524141627 82 269 1.0 4.0 0.00 0.00 0.00 69 1018.5
20190524141049 83 278 0.0 3.0 0.00 0.00 0.00 69 1018.6
20190524140547 82 145 0.0 3.0 0.00 0.00 0.00 68 1018.7
20190524140102 82 262 0.0 3.0 0.00 0.00 0.00 66 1018.7
20190524135544 82 280 0.0 1.0 0.00 0.00 0.00 71 1018.6
20190524135044 81 210 0.0 1.0 0.00 0.00 0.00 74 1018.7
20190524134649 81 198 0.0 3.0 0.00 0.00 0.00 76 1018.7
20190524134043 80 232 0.0 3.0 0.00 0.00 0.00 73 1018.8
20190524133547 80 231 0.0 1.0 0.00 0.00 0.00 76 1018.8
20190524133056 79 215 0.0 1.0 0.00 0.00 0.00 77 1018.8
20190524132545 79 212 0.0 4.0 0.00 0.00 0.00 78 1018.9
20190524132040 80 173 0.0 3.0 0.00 0.00 0.00 75 1018.9
20190524131609 80 229 0.0 3.0 0.00 0.00 0.00 74 1019.0
20190524131038 80 149 0.0 0.0 0.00 0.00 0.00 73 1018.9
20190524130539 79 108 0.0 1.0 0.00 0.00 0.00 77 1018.9
20190524130042 78 344 0.0 1.0 0.00 0.00 0.00 79 1018.9
20190524125537 77 253 0.0 2.0 0.00 0.00 0.00 79 1018.9
20190524125031 76 236 0.0 2.0 0.00 0.00 0.00 80 1018.8
20190524124628 76 251 0.0 4.0 0.00 0.00 0.00 82 1018.8
20190524124034 75 273 0.0 4.0 0.00 0.00 0.00 83 1018.7
20190524123528 75 262 0.0 1.0 0.00 0.00 0.00 86 1018.7
20190524123046 74 232 0.0 2.0 0.00 0.00 0.00 87 1018.6
20190524122525 73 245 0.0 2.0 0.00 0.00 0.00 89 1018.7
20190524122028 72 264 0.0 2.0 0.00 0.00 0.00 93 1018.6
20190524121550 71 305 0.0 0.0 0.00 0.00 0.00 97 1018.7
20190524121021 69 305 0.0 1.0 0.00 0.00 0.00 99 1018.7
20190524120523 69 277 0.0 0.0 0.00 0.00 0.00 99 1018.7
20190524120103 68 277 0.0 0.0 0.00 0.00 0.00 99 1018.7
20190524115521 68 277 0.0 1.0 0.00 0.00 0.00 99 1018.7
20190524115021 68 277 0.0 1.0 0.00 0.00 0.00 99 1018.6
20190524114527 67 285 0.0 1.0 0.00 0.00 0.00 99 1018.7
20190524114022 67 288 0.0 0.0 0.00 0.00 0.00 99 1018.7
20190524113527 66 288 0.0 0.0 0.00 0.00 0.00 99 1018.5
20190524113102 66 288 0.0 0.0 0.00 0.00 0.00 99 1018.5
20190524112523 66 288 0.0 0.0 0.00 0.00 0.00 99 1018.5
20190524112020 66 288 0.0 0.0 0.00 0.00 0.00 99 1018.5
20190524111524 66 288 0.0 0.0 0.00 0.00 0.00 99 1018.5
20190524111026 66 288 0.0 0.0 0.00 0.00 0.00 99 1018.5
20190524110522 65 288 0.0 0.0 0.00 0.00 0.00 99 1018.6
20190524110026 65 288 0.0 0.0 0.00 0.00 0.00 99 1018.6
20190524105519 65 288 0.0 0.0 0.00 0.00 0.00 99 1018.5
20190524105024 65 288 0.0 0.0 0.00 0.00 0.00 99 1018.4
20190524104544 65 288 0.0 0.0 0.00 0.00 0.00 99 1018.3
20190524104019 65 288 0.0 0.0 0.00 0.00 0.00 99 1018.3
20190524103524 65 288 0.0 0.0 0.00 0.00 0.00 99 1018.2
20190524103123 65 288 0.0 0.0 0.00 0.00 0.00 99 1018.2
20190524102518 65 288 0.0 0.0 0.00 0.00 0.00 99 1018.1
20190524102018 65 288 0.0 0.0 0.00 0.00 0.00 99 1018.0
20190524101540 65 288 0.0 0.0 0.00 0.00 0.00 99 1017.9
20190524101018 64 288 0.0 0.0 0.00 0.00 0.00 99 1017.8
20190524100518 65 288 0.0 0.0 0.00 0.00 0.00 99 1017.8
20190524100022 65 288 0.0 0.0 0.00 0.00 0.00 99 1017.8
20190524095522 65 288 0.0 0.0 0.00 0.01 0.00 98 1017.8
20190524095017 65 288 0.0 0.0 0.00 0.01 0.00 98 1017.8
20190524094519 65 288 0.0 0.0 0.00 0.01 0.00 98 1017.7
20190524094024 65 288 0.0 0.0 0.00 0.01 0.00 98 1017.7
20190524093516 65 288 0.0 0.0 0.00 0.01 0.00 98 1017.7
20190524093051 65 288 0.0 0.0 0.00 0.01 0.00 98 1017.6
20190524092517 65 288 0.0 0.0 0.00 0.01 0.00 98 1017.6
20190524092013 65 288 0.0 0.0 0.00 0.01 0.00 98 1017.5
20190524091538 65 288 0.0 0.0 0.00 0.01 0.00 98 1017.6
20190524091012 65 288 0.0 0.0 0.00 0.01 0.00 97 1017.5
20190524090512 66 288 0.0 0.0 0.00 0.01 0.00 97 1017.5
20190524090033 66 288 0.0 0.0 0.00 0.01 0.00 97 1017.5
20190524085515 66 288 0.0 0.0 0.00 0.02 0.00 97 1017.6
20190524085010 66 288 0.0 0.0 0.00 0.02 0.00 96 1017.5
20190524084537 67 288 0.0 1.0 0.00 0.02 0.00 96 1017.5
20190524084014 67 288 0.0 1.0 0.00 0.02 0.00 96 1017.5
20190524083511 67 288 0.0 1.0 0.00 0.02 0.00 97 1017.4
20190524083039 67 283 0.0 0.0 0.00 0.02 0.00 96 1017.5
20190524082509 67 283 0.0 0.0 0.00 0.02 0.00 95 1017.5
20190524082012 68 283 0.0 0.0 0.00 0.02 0.00 94 1017.5
20190524081514 68 283 0.0 0.0 0.00 0.02 0.00 94 1017.5
20190524081008 69 283 0.0 1.0 0.00 0.02 0.00 94 1017.5
20190524080512 69 283 0.0 1.0 0.00 0.02 0.00 95 1017.5
20190524080011 69 259 0.0 3.0 0.00 0.02 0.00 95 1017.5
20190524075508 69 274 0.0 3.0 0.00 0.02 0.00 95 1017.4
20190524075010 69 260 0.0 1.0 0.00 0.02 0.00 96 1017.4
20190524074526 69 267 0.0 1.0 0.00 0.02 0.00 96 1017.5
20190524073510 68 266 0.0 4.0 0.00 0.02 0.00 99 1017.4
20190524073014 68 288 0.0 2.0 0.00 0.02 0.00 99 1017.5
20190524072513 67 276 0.0 1.0 0.00 0.02 0.00 99 1017.5
20190524072009 67 297 0.0 1.0 0.00 0.02 0.00 99 1017.6
20190524071508 67 276 0.0 0.0 0.00 0.02 0.00 99 1017.6
20190524071008 66 270 0.0 0.0 0.00 0.02 0.00 99 1017.7
20190524070504 66 270 0.0 0.0 0.00 0.02 0.00 99 1017.7
20190524070008 66 270 0.0 0.0 0.00 0.02 0.00 99 1017.7
20190524065504 66 271 0.0 0.0 0.00 0.02 0.00 99 1017.7
20190524065002 66 271 0.0 0.0 0.00 0.02 0.00 99 1017.7
20190524064508 66 271 0.0 0.0 0.00 0.02 0.00 98 1017.8
20190524064002 66 271 0.0 0.0 0.00 0.02 0.00 98 1017.8
20190524063504 66 271 0.0 0.0 0.00 0.02 0.00 98 1017.9
20190524063007 66 271 0.0 0.0 0.00 0.02 0.00 98 1017.9
20190524062605 67 271 0.0 0.0 0.00 0.02 0.00 98 1018.0
20190524062502 67 271 0.0 0.0 0.00 0.02 0.00 98 1018.0
20190524062059 67 271 0.0 0.0 0.00 0.02 0.00 98 1018.0
20190524061659 67 271 0.0 0.0 0.00 0.02 0.00 98 1018.0
20190524061059 67 271 0.0 0.0 0.00 0.02 0.00 98 1018.0
20190524060559 67 271 0.0 0.0 0.00 0.02 0.00 98 1017.9
20190524060144 67 271 0.0 0.0 0.00 0.02 0.00 98 1018.1
20190524055602 67 271 0.0 0.0 0.00 0.02 0.00 98 1018.1
20190524055056 67 271 0.0 0.0 0.00 0.02 0.00 98 1018.1
20190524054645 67 271 0.0 0.0 0.00 0.02 0.00 98 1018.1
20190524054055 68 271 0.0 0.0 0.00 0.02 0.00 98 1018.2
20190524053554 68 271 0.0 0.0 0.00 0.02 0.00 98 1018.2
20190524053203 68 271 0.0 0.0 0.00 0.02 0.00 97 1018.3
20190524052553 68 271 0.0 0.0 0.00 0.02 0.00 97 1018.3
20190524052054 68 271 0.0 0.0 0.00 0.02 0.00 97 1018.3
20190524051623 68 271 0.0 0.0 0.00 0.02 0.00 97 1018.3
20190524051051 68 271 0.0 0.0 0.00 0.02 0.00 97 1018.3
20190524050552 68 271 0.0 0.0 0.00 0.02 0.00 97 1018.3
20190524050126 69 271 0.0 0.0 0.00 0.02 0.00 97 1018.4
20190524045551 69 271 0.0 0.0 0.00 0.02 0.00 97 1018.4
20190524045052 69 271 0.0 0.0 0.00 0.02 0.00 97 1018.5
20190524044639 69 271 0.0 0.0 0.00 0.02 0.00 97 1018.6
20190524044046 69 271 0.0 0.0 0.00 0.02 0.00 97 1018.6
20190524043547 69 271 0.0 0.0 0.00 0.02 0.00 97 1018.6
20190524043113 69 271 0.0 0.0 0.00 0.02 0.00 97 1018.7
20190524042546 69 271 0.0 0.0 0.00 0.02 0.00 96 1018.8
20190524042049 69 271 0.0 0.0 0.00 0.02 0.00 96 1018.8
20190524041632 69 271 0.0 0.0 0.00 0.02 0.00 95 1018.9
20190524041042 70 271 0.0 0.0 0.00 0.02 0.00 95 1019.0
20190524040541 70 271 0.0 0.0 0.00 0.02 0.00 95 1019.1
20190524040143 70 271 0.0 0.0 0.00 0.02 0.00 95 1019.0
20190524035539 70 271 0.0 0.0 0.00 0.02 0.02 95 1019.2
20190524035046 70 271 0.0 0.0 0.00 0.02 0.02 96 1019.2
20190524034604 70 271 0.0 0.0 0.00 0.02 0.02 96 1019.1
20190524034043 70 271 0.0 0.0 0.00 0.02 0.02 97 1019.2
20190524033539 70 265 0.0 0.0 0.00 0.02 0.02 96 1019.1
20190524033113 70 266 0.0 1.0 0.00 0.02 0.02 96 1019.0
20190524032539 70 266 0.0 1.0 0.00 0.02 0.02 97 1019.1
20190524032039 70 309 0.0 0.0 0.00 0.02 0.02 97 1019.1
20190524031614 70 311 0.0 0.0 0.00 0.02 0.02 97 1019.0
20190524031038 70 311 0.0 0.0 0.00 0.02 0.02 96 1019.1
20190524030542 70 311 0.0 0.0 0.00 0.02 0.02 95 1019.0
20190524030131 70 311 0.0 0.0 0.00 0.02 0.02 96 1019.0
20190524025538 70 311 0.0 0.0 0.00 0.02 0.02 96 1018.9
20190524025042 70 311 0.0 0.0 0.00 0.02 0.02 95 1018.9
20190524024557 70 311 0.0 0.0 0.00 0.02 0.02 95 1018.9
20190524024041 71 311 0.0 0.0 0.00 0.02 0.02 95 1019.0
20190524023537 71 311 0.0 0.0 0.00 0.02 0.02 95 1019.0
20190524023159 71 311 0.0 0.0 0.00 0.02 0.02 95 1018.9
20190524022546 71 311 0.0 0.0 0.00 0.02 0.02 95 1018.8
20190524022037 71 311 0.0 0.0 0.00 0.02 0.02 95 1018.8
20190524021615 71 311 0.0 0.0 0.00 0.02 0.02 94 1018.7
20190524021036 71 309 0.0 0.0 0.00 0.02 0.02 94 1018.9
20190524020542 71 312 0.0 0.0 0.00 0.02 0.02 94 1018.9
20190524020122 71 313 0.0 0.0 0.00 0.02 0.02 94 1018.7
20190524015544 72 311 0.0 0.0 0.00 0.02 0.02 93 1018.6
20190524015038 72 312 0.0 0.0 0.00 0.02 0.02 93 1018.6
20190524014712 72 312 0.0 0.0 0.00 0.02 0.02 92 1018.7
20190524014036 73 312 0.0 0.0 0.00 0.02 0.02 92 1018.6
20190524013536 73 312 0.0 0.0 0.00 0.02 0.02 92 1018.6
20190524013059 73 312 0.0 0.0 0.00 0.02 0.02 91 1018.7
20190524012536 73 312 0.0 0.0 0.00 0.02 0.02 91 1018.5
20190524012038 73 312 0.0 0.0 0.00 0.02 0.02 91 1018.4
20190524011600 74 312 0.0 0.0 0.00 0.02 0.02 90 1018.4
20190524011045 74 312 0.0 0.0 0.00 0.02 0.02 90 1018.4
20190524010534 74 312 0.0 1.0 0.00 0.02 0.02 89 1018.5
20190524010118 74 312 0.0 0.0 0.00 0.02 0.02 89 1018.5
20190524005544 74 312 0.0 0.0 0.00 0.02 0.02 89 1018.5
20190524005040 75 312 0.0 0.0 0.00 0.02 0.02 89 1018.4
20190524004612 75 313 0.0 1.0 0.00 0.02 0.02 88 1018.3
20190524004034 75 312 0.0 1.0 0.00 0.02 0.02 88 1018.3
20190524003540 75 17 0.0 1.0 0.00 0.02 0.02 87 1018.4
20190524003112 76 320 0.0 0.0 0.00 0.02 0.02 87 1018.4
20190524002538 76 320 0.0 0.0 0.00 0.02 0.02 86 1018.4
20190524002037 76 320 0.0 0.0 0.00 0.02 0.02 85 1018.3